Other Surface Observations
Issued by NWS Tucson, AZ

Home | Current Version | Previous Version | Text Only | Print | Product List | Glossary On
Versions: 1 2 3 4 5 6 7 8 9 10 11 12 13 14 15 16 17 18 19 20 21 22 23 24 25 26 27 28 29 30 31 32 33 34 35 36 37 38 39 40 41 42 43 44 45 46 47 48 49 50
029
SXUS55 KTWC 201315
OSOTWC

WEATHER ROUNDUP FOR SOUTHEAST ARIZONA
NATIONAL WEATHER SERVICE TUCSON AZ
615 AM MST FRI JAN 20 2017

AZZ504>506-514-201415-
LOCATION       SKY/WX    TMP DP  RH WIND       PRES   REMARKS
TUCSON         LGT RAIN  51  38  60 SW7       29.86S
DAVIS-MONTHAN  DRIZZLE   50  37  62 SW9       29.84F
CHILDRENS PARK N/A      N/A N/A  68 E2                PIMA CO DEQ
ALVERNON/22ND  N/A       51 N/A N/A S3                PIMA CO DEQ
CHERRY/GLENN   N/A       50 N/A N/A N/A               PIMA CO DEQ
TANGERINE      N/A       50 N/A N/A SW3               PIMA CO DEQ
CONTL RANCH    N/A       52  39  60 SW7               PIMA CO DEQ
GRANT/1ST      N/A       50  38  63 SE1               PIMA CO DEQ
CRAYCROFT/22ND N/A       50  38  63 N/A               PIMA CO DEQ
GOLFLINKS/KOLB N/A       50  35  57 SW3               PIMA CO DEQ
AJO/12TH       N/A       52  38  59 S8                PIMA CO DEQ
FAIRGROUNDS    N/A       48 N/A N/A N/A               PIMA CO DEQ
SAGUARO        N/A       48  40  75 N3                *SABINO CYN
SAN CARLOS     N/A       42  42  100 CALM             *SAN CARLOS
GREEN VALLEY   N/A       48  34  58 S10               PIMA CO DEQ
HORSE CAMP CYN N/A       42  39  88 SW10G17           *ARAVAIPA CYN
RINCON MTNS    NOT AVBL
$$

AZZ509>511-201415-
LOCATION       SKY/WX    TMP DP  RH WIND       PRES   REMARKS
SAFFORD        FOG       37  36  96 E3        29.81S VSB 1/4
STRAY HORSE    N/A       27  27  100 N/A              *
TRAIL CABIN    N/A       33  32  95 SW8G14            *N OF GRANVILLE
BLACK HILLS    NOT AVBL
DRY LAKE       N/A       29  29  100 SW8G17           *NATANES MTNS
NOON CREEK     NOT AVBL
COLUMBINE      N/A       22  22  99 SW4G10            *PINALENO MTNS
GUTHRIE        N/A       33  31  93 W6G13             *SW OF GUTHRIE
$$

AZZ502-503-513-201415-
LOCATION       SKY/WX    TMP DP  RH WIND       PRES   REMARKS
NOGALES        CLOUDY    44  33  65 S9        29.88R
SELLS          N/A       47  46  96 SE9G14            *
SASABE         N/A       43  42  97 S5G10             *ALTAR VLY
HOPKINS        N/A       31  30  97 SW5G17            *SANTA RITA MTNS
CARR CYN       N/A       39  29  67 S3G10             *W OF HEREFORD
$$

AZZ507-508-512-201415-
LOCATION       SKY/WX    TMP DP  RH WIND       PRES   REMARKS
SIERRA VISTA   CLEAR     43  30  61 S13G20    29.86S
DOUGLAS        PTCLDY    37  30  75 E5        29.88R WCI  33
EMPIRE MTNS    NOT AVBL
MULESHOE RANCH N/A       41  33  72 W9G19             *PRESERVE
HEADQUARTERS   NOT AVBL
$$

.............................NOTES.............................
THIS IS AN AUTOMATED COLLECTIVE WITH MINIMAL QUALITY CONTROL.
PIMA CO DEQ SITES HAVE NONSTANDARD WIND SENSOR HEIGHTS.
PIMA CO DEQ SITES DO NOT REPORT WIND GUSTS.
* INDICATES WIND SENSORS LOCATED AT 20 FEET INSTEAD OF 33 FEET.
..............................KEY..............................
SKY/WX - SKY CONDITION/WEATHER
TMP    - TEMPERATURE IN FAHRENHEIT
DP     - DEWPOINT IN FAHRENHEIT
RH     - RELATIVE HUMIDITY IN PERCENT
WIND   - DIRECTION AND SPEED IN MILES PER HOUR (MPH)
VRB    - VARIABLE WIND DIRECTION
PRES   - MEAN SEA LEVEL PRESSURE IN INCHES OF MERCURY
         F - FALLING PRESSURE   R - RISING PRESSURE
         S - STEADY PRESSURE
VSB    - VISIBILITY IN MILES
HX     - HEAT INDEX IN FAHRENHEIT
WCI    - WIND CHILL INDEX IN FAHRENHEIT
N/A    - NOT AVAILABLE
AFB    - AIR FORCE BASE
         DAVIS-MONTHAN IS DAVIS-MONTHAN AIR FORCE BASE
CYN    - CANYON
MTNS   - MOUNTAINS
NCA    - NATIONAL CONSERVATION AREA
NR     - NEAR
VLY    - VALLEY
CONTL  - CONTINENTAL
PIMA CO DEQ - PIMA COUNTY DEPT OF ENVIRONMENTAL QUALITY



USA.gov is the U.S. government's official web portal to all federal, state and local government web resources and services.